Location: New Plymouth
(39.0670°S, 174.0830°E)
Time: 12:25:53
(UTC+12:00)

UNISAT 6 - Visible Passes

Search period start: 25 August 2019 00:00
Search period end: 04 September 2019 00:00
Orbit: 608 x 688 km, 97.7° (Epoch: 24 August)

Date Brightness Start Highest point End Pass type
(mag) Time Alt. Az. Time Alt. Az. Time Alt. Az.
25 Aug ? 19:59:11 12° S 19:59:11 12° S 19:59:35 10° S visible
26 Aug ? 20:25:20 13° S 20:25:20 13° S 20:25:50 10° S visible
27 Aug ? 20:51:28 12° SSW 20:51:28 12° SSW 20:51:45 10° SSW visible
28 Aug ? 19:39:51 13° SSE 19:39:51 13° SSE 19:40:29 10° SSE visible
29 Aug ? 20:05:59 16° S 20:05:59 16° S 20:07:00 10° S visible
30 Aug ? 20:32:08 17° SSW 20:32:08 17° SSW 20:33:09 10° SSW visible
31 Aug ? 19:20:31 12° SE 19:20:31 12° SE 19:21:04 10° SSE visible
31 Aug ? 20:58:16 14° SSW 20:58:16 14° SSW 20:58:58 10° SSW visible
01 Sep ? 19:46:40 17° SSE 19:46:40 17° SSE 19:47:59 10° S visible
02 Sep ? 20:12:47 22° S 20:12:47 22° S 20:14:23 10° S visible
03 Sep ? 20:38:55 21° SSW 20:38:55 21° SSW 20:40:26 10° SSW visible
